Погода в Новорождественском

Россия / Томская область     56°29′22″N   86°00′04″E
темп.,
°C
ветер,
м/с
пор.,
м/с
влажн.,
%
обл.,
%
осадки,
мм/ч
давл.,
гПа
погр.,
м
18 сентября, сб
сб1801:00+16ю61747100 0.0 996740
04:00+16ююз71748100 0.0 9931163
07:00+10зюз51384100 0.1 998984
10:00+10зюз69717 0.1 1002981
13:00+11зюз6106586 0.2 10051430
16:00+11зюз51061100 0.1 10071576
19:00+9зюз41064100 0.1 10081218
22:00+8юз386972 0.0 1009716
19 сентября, вс
вс1901:00+4ююз268979 0.0 1009131
04:00+4ююз3985100 0.0 1009240
07:00+5ююз31080100 0.0 1008331
10:00+8ююз41064100 0.0 1007706
13:00+12ююз6115099 0.0 10061660
16:00+10юз411739 0.1 10061324
19:00+9юз49655 0.4 1006439
22:00+4юз26885 0.0 1007132
20 сентября, пн
пн2001:00+3юз23955 0.0 100741
04:00+2юз269580 0.0 1007131
07:00+2юз3119061 0.0 1008387
10:00+6зюз6116382 0.0 10091265
13:00+7юз6105699 0.2 10101709
16:00+6юз61173100 0.4 10111358
19:00+4юз51088100 0.8 1011963
22:00+3юз51196100 0.8 1010927
21 сентября, вт
вт2101:00+3зюз4992100 0.9 1010866
04:00+2зюз4895100 1.3 1010628
07:00+1зюз3898100 1.5 1010464
10:00+2з3793100 0.4 1011550
13:00+3зюз4795100 0.8 1012577
16:00+3зюз488995 0.4 1013749
19:00+2зюз499597 0.8 1014733
22:00+2з51097100 0.3 1015731
22 сентября, ср
ср2201:00+1з2698100 0.4 1016511
04:00+1зюз3898100 0.3 1016427
07:000зюз3796100 0.5 1017420
10:00+1юз3589100 0.1 1018606
13:00+3юз4688100 0.3 1018723
16:00+3зюз368788 0.4 1018635
19:00+2юз2390100 0.4 1018145
22:00+2ююз2499100 0.0 1019188